FW8731 Weather Reports


time (UTC)temp
F
wind
direction
speed
knots
gust
knots
rain 1hr
in
rain 24hr
in
rain mn
in
humidity
%
barometer
mb
20260504081537 57 106 0.9 3.5 0.00 0.14 0.00 94 1011.9
20260504044547 58 0 0.9 2.6 0.00 0.14 0.14 91 1011.1
20260504043039 59 97 0.0 2.6 0.00 0.14 0.14 91 1011.1
20260504041542 59 128 0.9 6.1 0.00 0.14 0.14 90 1010.9
20260504040042 58 183 2.6 8.7 0.00 0.14 0.14 92 1010.6
20260504034545 58 157 0.9 2.6 0.00 0.14 0.14 93 1010.3
20260504033043 58 0 0.0 0.9 0.00 0.14 0.14 93 1010.4
20260504031543 58 192 0.0 0.9 0.00 0.14 0.14 92 1010.4
20260504030047 59 0 0.0 1.7 0.00 0.14 0.14 92 1010.4
20260504024545 59 0 0.0 2.6 0.00 0.14 0.14 92 1010.4
20260504023043 59 175 0.0 1.7 0.00 0.14 0.14 92 1010.4
20260504021541 59 0 0.0 4.3 0.00 0.14 0.14 92 1010.6
20260504020041 59 122 0.9 1.7 0.00 0.14 0.14 92 1010.8
20260504014540 59 0 0.0 0.9 0.00 0.14 0.14 92 1010.6
20260504013102 59 0 0.0 0.9 0.00 0.14 0.14 92 1010.2
20260504011543 59 0 0.0 1.7 0.01 0.14 0.14 90 1010.1
20260504010043 59 122 0.0 3.5 0.07 0.14 0.14 89 1010.3
20260504004538 60 98 0.0 2.6 0.14 0.14 0.14 89 1010.6
20260504003044 60 172 1.7 4.3 0.14 0.14 0.14 87 1010.7
20260504001548 62 134 1.7 4.3 0.13 0.13 0.13 82 1011.1
20260504000043 70 313 1.7 13.9 0.06 0.06 0.06 63 1011.2
20260503234538 79 115 0.9 6.1 0.00 0.00 0.00 36 1009.8
20260503233046 81 0 0.9 2.6 0.00 0.00 0.00 40 1008.0
20260503231545 84 215 0.9 4.3 0.00 0.00 0.00 39 1007.1
20260503230045 86 198 0.0 4.3 0.00 0.00 0.00 36 1007.1
20260503224543 85 187 0.0 5.2 0.00 0.00 0.00 33 1007.2
20260503223039 85 0 0.0 4.3 0.00 0.00 0.00 29 1007.5
20260503221537 85 180 1.7 4.3 0.00 0.00 0.00 32 1007.5
20260503220044 85 195 0.9 5.2 0.00 0.00 0.00 32 1007.6
20260503214542 85 280 1.7 5.2 0.00 0.00 0.00 31 1008.0
20260503213044 85 206 1.7 6.1 0.00 0.00 0.00 32 1008.4
20260503211537 83 0 0.9 2.6 0.00 0.00 0.00 37 1008.6
20260503210044 82 275 0.0 2.6 0.00 0.00 0.00 37 1008.7
20260503204554 81 191 1.7 5.2 0.00 0.00 0.00 38 1008.9
20260503203049 80 188 1.7 5.2 0.00 0.00 0.00 46 1009.1
20260503201546 79 198 0.9 2.6 0.00 0.00 0.00 49 1009.2
20260503200045 77 190 0.9 5.2 0.00 0.00 0.00 51 1009.5
20260503194546 76 176 0.9 4.3 0.00 0.00 0.00 55 1009.6
20260503193047 77 192 0.0 3.5 0.00 0.00 0.00 50 1009.7
20260503191608 76 231 0.9 4.3 0.00 0.00 0.00 52 1010.0
20260503190048 74 211 1.7 4.3 0.00 0.00 0.00 58 1010.2
20260503184547 73 176 2.6 5.2 0.00 0.00 0.00 59 1010.4
20260503183039 71 0 0.9 5.2 0.00 0.00 0.00 60 1010.7
20260503181547 70 186 1.7 5.2 0.00 0.00 0.00 63 1010.9
20260503180055 68 166 0.9 4.3 0.00 0.00 0.00 64 1011.1
20260503174551 67 194 1.7 3.5 0.00 0.00 0.00 66 1011.2
20260503173042 66 201 0.0 3.5 0.00 0.00 0.00 71 1011.5
20260503171539 65 0 0.0 2.6 0.00 0.00 0.00 70 1011.5